User: anonymous   Login
Location: Augustenthal
(51.7167°N, 10.2833°E)
Time: 00:30:25
(UTC+00:00)
Language:

DNEPR-1 R/B - Orbit

View from above orbital plane
View from above orbital plane
View from above satellite
View from above satellite

Ground track
Ground track

The orbit data is extracted from the following two-line orbital elements,

1 26550U 00057F   21213.77114523 -.00000100  00000-0  44105-5 0  9990
2 26550  64.5660 330.5354 0507836 100.9246 264.9358 13.80815734 50755
Epoch (UTC): 01 August 2021 18:30:26
Eccentricity: 0.0507836
inclination: 64.5660°
perigee height: 588 km
apogee height: 1334 km
right ascension of ascending node: 330.5354°
argument of perigee: 100.9246°
revolutions per day: 13.80815734
mean anomaly at epoch: 264.9358°
orbit number at epoch: 5075

The dashed part of the orbit path shows where the satellite is in the earth's shadow,  

DLR